Tracking 19562 objects as of 24-Mar-2019
HD Live streaming from Space Station
objects crossing your sky now

GALILEO 26 (2C2)

Track GALILEO 26 (2C2) now!
GALILEO 26 (2C2) is classified as:


NORAD ID: 43565
Int'l Code: 2018-060B
Perigee: 23,211.0 km
Apogee: 23,247.2 km
Inclination: 56.5 °
Period: 844.7 minutes
Semi major axis: 29600 km
RCS: Unknown
Launch date: July 25, 2018
Source: European Space Agency (ESA)
Launch site: FRENCH GUIANA (FRGUI)
aabbcc
Your satellite tracking list
Your tracking list is empty




NASA's NSSDC Master Catalog

Two Line Element Set (TLE):
1 43565U 18060B   19081.54911564 -.00000053 +00000-0 +00000-0 0  9991
2 43565 056.5047 053.4853 0006118 292.1601 067.7459 01.70475846004146
Source of the keplerian elements: AFSPC